Flag Weather past 2 weeks in Conception Bay South, Newfoundland and Labrador, Canada

Now
50 °F

Passing clouds.


Feels Like: 42 °F
Forecast: 34 / 44 °F
Wind: 32 mph from Southwest

Location: St. John's

Current Time: Nov 27, 2014 at 8:59:19 PM

Latest Report: Nov 27, 2014 at 7:30 PM


Visibility: 15 mi

Pressure: 29.36 "Hg

Humidity: 88%

Dew point: 46 °F

Location of Conception Bay SouthLocation

Historic Weather in Conception Bay South — Graph

°F

Conception Bay South temperature yesterday

Maximum temperature yesterday: 48 °F (at 12:30 AM)
Minimum temperature yesterday: 37 °F (at 11:30 PM)
Average temperature yesterday: 43 °F

Past Weeks' High & Low Weather Summary

 TemperatureHumidityPressure
High61 °F (Nov 18, 1:30 PM)100% (Nov 14, 12:30 AM)30.42 "Hg (Nov 14, 12:30 AM)
Low25 °F (Nov 22, 6:30 AM)44% (Nov 19, 2:30 PM)29.32 "Hg (Nov 15, 6:30 AM)
Average37 °F81%29.85 "Hg
* Reported Nov 12 7:30 PM — Nov 27 7:30 PM, Conception Bay South, Weather by CustomWeather, © 2014

Note: Actual official high and low records may vary slightly from our data, if they occured in-between our weather recording intervals... More about our weather records

Advertising

Conception Bay South weather history for previous 24 hours

 ConditionsComfort  
Time TempWeatherWind HumidityBarometerVisibility
7:30 PM
Nov 27
50 °FPassing clouds.32 mph88%29.36 "Hg15 mi
6:30 PM52 °FPassing clouds.29 mph94%29.36 "Hg15 mi
5:30 PM55 °FDrizzle. Mostly cloudy.28 mph94%29.38 "Hg15 mi
4:30 PM55 °FDrizzle. Mostly cloudy.37 mph100%29.41 "Hg12 mi
3:30 PM41 °FRain. Fog.7 mph100%29.45 "Hg2 mi
2:30 PM37 °FRain. Fog.6 mph100%29.48 "Hg1 mi
1:30 PM39 °FLight rain. Fog.7 mph100%29.56 "Hg1 mi
12:30 PM39 °FLight rain. Fog.22 mph100%29.63 "Hg1 mi
11:30 AM37 °FLight rain. Fog.22 mph100%29.72 "Hg0 mi
10:30 AM36 °FDrizzle. Fog.21 mph100%29.82 "Hg0 mi
9:30 AM36 °FLight rain. Fog.24 mph100%29.88 "Hg1 mi
8:30 AM36 °FLight rain. Fog.22 mph93%29.93 "Hg3 mi
7:30 AM34 °FLight rain. Fog.16 mph100%29.98 "Hg4 mi
6:30 AM34 °FLight rain. Fog.14 mph100%30.03 "Hg6 mi
5:30 AM34 °FLight rain. Overcast.8 mph93%30.06 "Hg10 mi
5:16 AM34 °FLight rain. Mostly cloudy.8 mph93%30.06 "Hg10 mi
4:30 AM32 °FLight rain. Mostly cloudy.6 mph100%30.08 "Hg12 mi
3:30 AM34 °FLight rain. Overcast.3 mph93%30.14 "Hg12 mi
3:20 AM34 °FLight rain. Overcast.3 mph93%30.13 "Hg12 mi
2:30 AM36 °FSleet. Overcast.2 mph81%30.12 "Hg10 mi
1:30 AM37 °FOvercast.7 mph75%30.14 "Hg15 mi
12:30 AM37 °FOvercast.8 mph75%30.14 "Hg15 mi
11:30 PM
Nov 26
37 °FOvercast.10 mph81%30.15 "Hg15 mi
10:30 PM39 °FPartly cloudy.3 mph87%30.16 "Hg15 mi
9:30 PM39 °FMostly cloudy.9 mph87%30.14 "Hg15 mi
8:30 PM39 °FMostly cloudy.6 mph87%30.13 "Hg15 mi
Weather by CustomWeather, © 2014

See weather overviewHow to use our weather pages